Weather History for Houlton, ME

Change the Weather History Date:

Thursday, August 29, 2013

  Actual Average Record
Temperature  
Mean Temperature 54 °F 61 °F  
Max Temperature 67 °F 74 °F 91 °F (1977)
Min Temperature 41 °F 49 °F 33 °F (1982)
Degree Days  
Heating Degree Days 11 5  
Month to date heating degree days 86 86  
Since 1 June heating degree days 320 327  
Since 1 July heating degree days 123 146  
Cooling Degree Days 0 1  
Month to date cooling degree days 30 53  
Year to date cooling degree days 177 173  
Since 1 June cooling degree days 173 169  
Growing Degree Days 6 (Base 50)    
Moisture  
Dew Point 50 °F    
Average Humidity 80    
Maximum Humidity 100    
Minimum Humidity 60    
Precipitation  
Precipitation 0.00 in 0.10 in 1.44 in (1967)
Month to date precipitation 4.31 3.49  
Year to date precipitation 27.17 25.43  
Snow  
Snow 0.00 in 0.00 in 0.00 in (2003)
Month to date snowfall 0.0 0.0  
Since 1 June snowfall 0.0 0.0  
Snow Depth 0.00 in    
Sea Level Pressure  
Sea Level Pressure 30.12 in    
Wind  
Wind Speed 6 mph (ENE)    
Max Wind Speed 15 mph    
Max Gust Speed 21 mph    
Visibility 10 miles    
Events      
T = Trace of Precipitation, MM = Missing Value Source: NWS Daily Summary

Daily Weather History Graph

Daily Weather History Graph

Search for Another Location

Airport:

Trip Planner

Search our weather history database for the weather conditions in past years. The results will help you decide how hot, cold, wet, or windy it might be!

Date:

Astronomy

Aug. 29, 2013 Rise Set
Actual Time 5:48 AM EDT 7:14 PM EDT
Civil Twilight 5:16 AM EDT 7:46 PM EDT
Nautical Twilight 4:39 AM EDT 8:23 PM EDT
Astronomical Twilight 3:58 AM EDT 9:04 PM EDT
Moon No Moon Rise 2:50 PM EDT (8/29)
Length of Visible Light 14h 29m
Length of Day
13h 26m
Last Quarter, 38% of the Moon is Illuminated
Aug 29
Last Quarter
Sep 5
New
Sep 12
First Quarter
Sep 19
Full
Sep 26
Last Quarter

Hourly Weather History & Observations

Time (EDT) Temp. Dew Point Humidity Pressure Visibility Wind Dir Wind Speed Gust Speed Precip Events Conditions
12:19 AM 60.8 °F 55.4 °F 82% 30.08 in 10.0 mi East 8.1 mph - N/A   Overcast
12:42 AM 60.8 °F 53.6 °F 77% 30.09 in 10.0 mi East 12.7 mph 20.7 mph N/A   Overcast
12:53 AM 60.1 °F 54.0 °F 80% 30.09 in 10.0 mi East 8.1 mph - N/A   Overcast
1:07 AM 60.8 °F 53.6 °F 77% 30.09 in 10.0 mi ENE 8.1 mph - N/A   Overcast
1:53 AM 59.0 °F 53.1 °F 81% 30.10 in 10.0 mi NE 9.2 mph - N/A   Overcast
2:53 AM 57.9 °F 52.0 °F 81% 30.11 in 10.0 mi ENE 11.5 mph - N/A   Overcast
3:53 AM 57.0 °F 51.1 °F 81% 30.12 in 10.0 mi ENE 10.4 mph 17.3 mph N/A   Overcast
4:53 AM 57.0 °F 50.0 °F 77% 30.14 in 10.0 mi NE 8.1 mph - N/A   Overcast
5:53 AM 55.9 °F 50.0 °F 80% 30.16 in 10.0 mi NE 10.4 mph - N/A   Overcast
6:53 AM 55.0 °F 48.9 °F 80% 30.18 in 10.0 mi NE 13.8 mph 17.3 mph N/A   Overcast
7:53 AM 55.0 °F 48.9 °F 80% 30.19 in 10.0 mi NE 10.4 mph 17.3 mph N/A   Overcast
8:53 AM 55.9 °F 48.9 °F 77% 30.19 in 10.0 mi NE 10.4 mph - N/A   Overcast
9:53 AM 57.0 °F 48.9 °F 74% 30.19 in 10.0 mi NE 12.7 mph - N/A   Overcast
10:53 AM 60.1 °F 50.0 °F 69% 30.18 in 10.0 mi North - - N/A   Mostly Cloudy
11:53 AM 61.0 °F 48.9 °F 64% 30.18 in 10.0 mi North - - N/A   Overcast
12:53 PM 61.0 °F 50.0 °F 67% 30.17 in - North - - N/A   Unknown
1:24 PM 62.6 °F 50.0 °F 63% 30.14 in 10.0 mi NE 9.2 mph - N/A   Mostly Cloudy
1:53 PM 64.0 °F 50.0 °F 60% 30.14 in 10.0 mi ENE 9.2 mph - N/A   Overcast
2:53 PM 64.9 °F 51.1 °F 61% 30.12 in 10.0 mi ENE 9.2 mph - N/A   Mostly Cloudy
3:53 PM 64.0 °F 50.0 °F 60% 30.11 in 10.0 mi NE 8.1 mph - N/A   Overcast
4:53 PM 63.0 °F 50.0 °F 63% 30.10 in 10.0 mi East 8.1 mph - N/A   Mostly Cloudy
5:53 PM 62.1 °F 48.9 °F 62% 30.09 in 10.0 mi ENE 4.6 mph - N/A   Mostly Cloudy
6:53 PM 59.0 °F 48.9 °F 69% 30.08 in 10.0 mi Calm Calm - N/A   Clear
7:53 PM 52.0 °F 50.0 °F 93% 30.08 in 10.0 mi Calm Calm - N/A   Clear
8:53 PM 50.0 °F 48.9 °F 96% 30.08 in 10.0 mi Calm Calm - N/A   Clear
9:53 PM 48.0 °F 48.0 °F 100% 30.08 in 10.0 mi Calm Calm - N/A   Clear
10:53 PM 48.0 °F 46.9 °F 96% 30.07 in 10.0 mi Calm Calm - N/A   Clear
11:53 PM 46.9 °F 45.0 °F 93% 30.04 in 9.0 mi Calm Calm - N/A   Clear